Back to catalog

FENGYUN 1C DEB

AliveSSO
NORAD 30052·DEBRIS·🇨🇳 China

Launched May 10, 1999 from Taiyuan Satellite Launch Center

Loading…

Next Passes (next 24 hours)

TLE

FreshSource: Space-Track

Epoch: Sep 14, 2026, 07:58 UTC

1 30052U 99025PD  26257.33260447  .00000310  00000-0  28371-3 0  9994
2 30052  99.2776 280.1131 0288057 229.7479 141.7941 13.73253339983374

Track FENGYUN 1C DEB in real time with AllMySat

Download on the App Store